[[{"header":{"parameterUnit":"m.s-1","parameterCategory":1,"la1":30.2991,"la2":30.254,"lo1":-89.0895,"lo2":-89.0444,"dy":0.0017,"dx":0.0017,"nx":28,"ny":28,"refTime":"2025-06-15T09:00:00:Z","depth":0,"parameterNumber":2,"parameterNumberName":"U-component_of_WINDS"},"data":[0,0,0,0,0,0,0,0,0,0,0,0,0,0,0,0,0,0,0,0,0,0,0,0,0,0,0,0,0,0,0,0,0,0,0,0,0,0,0,0,0,0,0,0,0,0,0,0,0,0,0,0,0,0,0,0,0,0,-0.2369,-0.2368,0,-0.2254,-0.2252,-0.2251,-0.2166,-0.2165,-0.2165,-0.2164,-0.2046,-0.2044,-0.2041,0,0,0,0,0,0,0,0,0,0,0,0,0,-0.2515,-0.2513,-0.2369,-0.2368,-0.2366,-0.2254,-0.2252,-0.2251,-0.2166,-0.2165,-0.2164,-0.2164,-0.2047,-0.2044,-0.2041,0,0,0,0,0,0,0,0,0,0,0,0,0,-0.2431,-0.2512,-0.2369,-0.231,-0.2304,-0.2254,-0.2252,-0.225,-0.2166,-0.2165,-0.2164,-0.2163,-0.2048,-0.2044,-0.2041,-0.204,0,0,-0.2029,-0.2028,0,0,0,0,0,0,0,0,-0.2436,-0.2426,-0.232,-0.2314,-0.2307,-0.2223,-0.2261,-0.218,-0.2167,-0.2219,-0.2164,-0.2163,-0.2106,-0.2097,-0.2078,-0.2035,-0.203,-0.2029,-0.2027,-0.2025,-0.2024,0,0,0,0,0,0,0,-0.2442,-0.243,-0.2323,-0.2319,-0.2311,-0.229,-0.2276,-0.2245,-0.217,-0.2214,-0.2208,-0.2195,-0.2102,-0.2082,-0.2075,-0.2028,-0.2029,-0.2026,-0.2024,-0.2022,-0.1978,-0.1979,0,0,0,0,0,0,-0.2457,-0.2436,-0.2327,-0.232,-0.237,-0.2288,-0.2273,-0.2251,-0.217,-0.2157,-0.2196,-0.2192,-0.2089,-0.2079,-0.207,-0.2064,-0.2025,-0.2022,-0.202,-0.1977,-0.1978,-0.1979,0,0,0,0,0,0,-0.246,-0.2448,-0.2332,-0.2376,-0.236,-0.2286,-0.2263,-0.225,-0.2229,-0.2157,-0.2143,-0.219,-0.2088,-0.2076,-0.2048,-0.2059,-0.202,-0.2017,-0.1975,-0.1977,-0.1978,-0.2053,0,0,0,0,0,0,-0.2465,-0.245,-0.2449,-0.2377,-0.2358,-0.2312,-0.2263,-0.2248,-0.2223,-0.2216,-0.2147,-0.2134,-0.2086,-0.2054,-0.2045,-0.2053,-0.2014,-0.1974,-0.1976,-0.1978,-0.2049,-0.2057,-0.2063,0,0,0,0,0,-0.2471,-0.2475,-0.245,-0.2437,-0.2355,-0.2313,-0.2302,-0.2246,-0.2225,-0.2223,-0.2176,-0.2136,-0.2059,-0.2052,-0.2041,-0.2049,-0.1973,-0.1976,-0.1978,-0.2046,-0.2055,-0.2063,0,0,0,0,0,0,-0.2551,-0.2465,-0.2435,-0.2417,-0.2373,-0.2299,-0.2295,-0.2258,-0.2219,-0.2214,-0.2147,-0.2132,-0.2112,-0.2077,-0.2071,-0.2043,-0.2011,-0.2011,-0.2067,-0.2075,-0.2082,-0.2091,-0.2011,0,0,0,0,0,-0.2567,-0.254,-0.2465,-0.2456,-0.2435,-0.2369,-0.2349,-0.2309,-0.2261,-0.2242,-0.2193,-0.2148,-0.2113,-0.2092,-0.2056,-0.2043,-0.2027,-0.2043,-0.205,-0.2056,-0.2057,-0.2047,-0.2053,-0.1986,-0.1986,-0.1986,0,0,-0.2599,-0.2548,-0.2535,-0.2471,-0.2432,-0.2405,-0.2354,-0.2328,-0.2308,-0.2238,-0.221,-0.2172,-0.2117,-0.2097,-0.2085,-0.2067,-0.2072,-0.2059,-0.2064,-0.2062,-0.205,-0.2056,-0.2062,-0.1988,-0.1988,-0.1987,0,0,-0.2644,-0.2603,-0.259,-0.2552,-0.2494,-0.245,-0.2447,-0.2378,-0.2351,-0.232,-0.2268,-0.2242,-0.2184,-0.2147,-0.212,-0.2149,-0.2111,-0.214,-0.2177,-0.2168,-0.2173,-0.2177,-0.2188,-0.2192,-0.2141,-0.2141,-0.2141,0,-0.2691,-0.2649,-0.2589,-0.2565,-0.2539,-0.2474,-0.246,-0.2426,-0.236,-0.2343,-0.2323,-0.2248,-0.2207,-0.2177,-0.2184,-0.2164,-0.2159,-0.2148,-0.2177,-0.2181,-0.2184,-0.2193,-0.2197,-0.2145,-0.2144,-0.2144,-0.2144,0,-0.271,-0.2681,-0.2678,-0.2615,-0.2588,-0.257,-0.2506,-0.2486,-0.2448,-0.2406,-0.2376,-0.2323,-0.2276,-0.2265,-0.2229,-0.223,-0.222,-0.219,-0.2156,-0.2195,-0.2203,-0.2206,-0.215,-0.2149,-0.2148,-0.2147,0,0,-0.2804,-0.2707,-0.2707,-0.2677,-0.2608,-0.2584,-0.2563,-0.2516,-0.2499,-0.2455,-0.2435,-0.2387,-0.2358,-0.2328,-0.2287,-0.2279,-0.2305,-0.2249,-0.2246,-0.2261,-0.2302,-0.2326,-0.2331,-0.2279,-0.2279,-0.2279,-0.2307,0,-0.2839,-0.2797,-0.2741,-0.2718,-0.2691,-0.2628,-0.2609,-0.2565,-0.2524,-0.2495,-0.245,-0.2417,-0.2381,-0.2363,-0.2352,-0.2304,-0.2312,-0.2301,-0.2259,-0.2259,-0.2276,-0.2335,-0.236,-0.2388,-0.2309,-0.231,-0.231,0,-0.2874,-0.2833,-0.2807,-0.2739,-0.2725,-0.2709,-0.2661,-0.2634,-0.2581,-0.2552,-0.2518,-0.2473,-0.2447,-0.2416,-0.2379,-0.2372,-0.2352,-0.2326,-0.2325,-0.232,-0.2288,-0.2331,-0.2396,-0.2401,-0.2314,-0.2314,-0.2313,0,-0.2945,-0.2883,-0.286,-0.2836,-0.2756,-0.2746,-0.2713,-0.2659,-0.2634,-0.2591,-0.2574,-0.253,-0.2505,-0.2471,-0.2415,-0.2398,-0.2384,-0.2348,-0.2359,-0.236,-0.2359,-0.236,-0.2422,-0.2345,-0.2345,-0.2345,-0.2345,0,-0.299,-0.2977,-0.2891,-0.2876,-0.2859,-0.2795,-0.278,-0.274,-0.2693,-0.2669,-0.2612,-0.2591,-0.2518,-0.2488,-0.2443,-0.2419,-0.2408,-0.2384,-0.2372,-0.2389,-0.2393,-0.2375,-0.2372,-0.2346,-0.2346,-0.2346,-0.2346,0,-0.3068,-0.3009,-0.298,-0.2906,-0.2887,-0.2878,-0.2814,-0.2798,-0.2753,-0.2724,-0.2714,-0.2644,-0.2606,-0.2546,-0.249,-0.246,-0.2443,-0.2424,-0.2461,-0.2455,-0.2468,-0.2468,-0.2522,-0.2526,-0.2447,-0.2448,-0.2448,0,-0.3101,-0.3089,-0.3014,-0.2994,-0.2962,-0.2931,-0.2904,-0.284,-0.2815,-0.2754,-0.2745,-0.2702,-0.2664,-0.2606,-0.255,-0.2507,-0.2486,-0.2508,-0.2479,-0.2497,-0.2487,-0.2488,-0.2487,-0.2515,-0.2516,-0.2517,-0.2518,0,-0.3165,-0.3137,-0.3101,-0.3056,-0.3026,-0.2987,-0.2945,-0.2932,-0.2858,-0.2833,-0.2793,-0.2764,-0.2706,-0.2665,-0.2613,-0.2578,-0.2536,-0.2527,-0.2527,-0.2545,-0.2567,-0.2555,-0.248,-0.2527,-0.2526,-0.2525,-0.2525,-0.2524,-0.3221,-0.3208,-0.3153,-0.3115,-0.3076,-0.3038,-0.3019,-0.2972,-0.2937,-0.2886,-0.2849,-0.2812,-0.2758,-0.2685,-0.2651,-0.262,-0.2602,-0.2602,-0.2602,-0.2604,-0.261,-0.2572,-0.2611,-0.261,-0.261,-0.261,-0.2609,0,-0.3283,-0.3244,-0.321,-0.3153,-0.3123,-0.3086,-0.3037,-0.3014,-0.2982,-0.2936,-0.2899,-0.2853,-0.2812,-0.2752,-0.2706,-0.2693,-0.2673,-0.2683,-0.2684,-0.2676,-0.2629,-0.2633,-0.2701,-0.2701,-0.2701,-0.2701,-0.2701,-0.2701,-0.3312,-0.3287,-0.3252,-0.3207,-0.3167,-0.313,-0.3106,-0.307,-0.3032,-0.2983,-0.2949,-0.291,-0.2858,-0.2807,-0.2767,-0.2751,-0.2737,-0.2753,-0.2731,-0.2688,-0.268,-0.2672,-0.2676,-0.2751,-0.2751,-0.2781,-0.2781,-0.2781]},{"header":{"parameterUnit":"m.s-1","parameterCategory":1,"la1":30.2991,"la2":30.254,"lo1":-89.0895,"lo2":-89.0444,"dy":0.0017,"dx":0.0017,"nx":28,"ny":28,"refTime":"2025-06-15T09:00:00:Z","depth":0,"parameterNumber":3,"parameterNumberName":"V-component_of_WINDS"},"data":[0,0,0,0,0,0,0,0,0,0,0,0,0,0,0,0,0,0,0,0,0,0,0,0,0,0,0,0,0,0,0,0,0,0,0,0,0,0,0,0,0,0,0,0,0,0,0,0,0,0,0,0,0,0,0,0,0,0,-4.5588,-4.5588,0,-4.5612,-4.5612,-4.5612,-4.5546,-4.5544,-4.5542,-4.554,-4.5563,-4.5566,-4.5568,0,0,0,0,0,0,0,0,0,0,0,0,0,-4.5482,-4.5484,-4.5588,-4.5588,-4.5588,-4.5612,-4.5612,-4.5612,-4.5546,-4.5543,-4.5541,-4.5539,-4.5562,-4.5565,-4.5568,0,0,0,0,0,0,0,0,0,0,0,0,0,-4.5519,-4.5485,-4.5588,-4.5558,-4.5556,-4.5612,-4.5612,-4.5612,-4.5547,-4.5543,-4.554,-4.5537,-4.5561,-4.5565,-4.5569,-4.5654,0,0,-4.5581,-4.5582,0,0,0,0,0,0,0,0,-4.5517,-4.5523,-4.5562,-4.556,-4.5558,-4.5572,-4.5583,-4.5626,-4.5547,-4.555,-4.554,-4.5536,-4.5569,-4.5572,-4.5583,-4.5655,-4.5656,-4.5581,-4.5583,-4.5585,-4.5586,0,0,0,0,0,0,0,-4.5515,-4.5522,-4.5597,-4.5563,-4.556,-4.5543,-4.5545,-4.5591,-4.5576,-4.555,-4.5545,-4.5549,-4.5567,-4.5579,-4.5583,-4.5657,-4.5581,-4.5584,-4.5586,-4.5588,-4.5796,-4.5799,0,0,0,0,0,0,-4.5516,-4.552,-4.5596,-4.5598,-4.5529,-4.5547,-4.5549,-4.5571,-4.5576,-4.5573,-4.5551,-4.5545,-4.5574,-4.5579,-4.5584,-4.5681,-4.5585,-4.5588,-4.5591,-4.5793,-4.5797,-4.5801,0,0,0,0,0,0,-4.5514,-4.5524,-4.5595,-4.5558,-4.5565,-4.5552,-4.5577,-4.5573,-4.5585,-4.5577,-4.5574,-4.5567,-4.5572,-4.5578,-4.5636,-4.5681,-4.559,-4.5594,-4.5789,-4.5794,-4.5799,-4.5879,0,0,0,0,0,0,-4.5511,-4.5523,-4.5556,-4.5559,-4.5568,-4.5649,-4.558,-4.5576,-4.5592,-4.5585,-4.5591,-4.5589,-4.557,-4.5631,-4.564,-4.5685,-4.5597,-4.5785,-4.5792,-4.5797,-4.5872,-4.5886,-4.5897,0,0,0,0,0,-4.5508,-4.5579,-4.5559,-4.5568,-4.5609,-4.5652,-4.5657,-4.5634,-4.5596,-4.5628,-4.5623,-4.5589,-4.5675,-4.5638,-4.5647,-4.5694,-4.5782,-4.579,-4.5797,-4.5866,-4.5883,-4.5897,0,0,0,0,0,0,-4.5582,-4.5579,-4.5556,-4.563,-4.5642,-4.564,-4.5681,-4.5653,-4.5675,-4.5668,-4.5638,-4.564,-4.5703,-4.5704,-4.5663,-4.5775,-4.5722,-4.5732,-4.5771,-4.5787,-4.58,-4.5797,-4.56,0,0,0,0,0,-4.5607,-4.5643,-4.5637,-4.5703,-4.571,-4.5695,-4.5712,-4.5694,-4.5704,-4.5709,-4.5707,-4.5719,-4.5748,-4.5768,-4.5795,-4.5872,-4.5871,-4.5909,-4.5921,-4.5932,-4.594,-4.5978,-4.5994,-4.5825,-4.5824,-4.5824,0,0,-4.566,-4.5662,-4.5686,-4.5718,-4.5725,-4.5761,-4.5699,-4.5741,-4.5767,-4.5715,-4.5769,-4.5768,-4.5779,-4.5846,-4.5876,-4.5849,-4.5986,-4.5941,-4.595,-4.5952,-4.5987,-4.6003,-4.6017,-4.5829,-4.5829,-4.5828,0,0,-4.5772,-4.5779,-4.5832,-4.584,-4.5851,-4.5839,-4.5852,-4.5855,-4.5852,-4.5906,-4.5867,-4.5897,-4.5949,-4.5957,-4.5968,-4.6081,-4.605,-4.6091,-4.6157,-4.6194,-4.6207,-4.6219,-4.6257,-4.6271,-4.6099,-4.61,-4.61,0,-4.5836,-4.5889,-4.5864,-4.5907,-4.5921,-4.5875,-4.5928,-4.5937,-4.5956,-4.5966,-4.5936,-4.5998,-4.6002,-4.6069,-4.6097,-4.6108,-4.612,-4.609,-4.6208,-4.6219,-4.623,-4.6265,-4.628,-4.6104,-4.6104,-4.6103,-4.6103,0,-4.5965,-4.6002,-4.6044,-4.6062,-4.6081,-4.613,-4.611,-4.6132,-4.6111,-4.6103,-4.6156,-4.616,-4.6185,-4.62,-4.6181,-4.6263,-4.6246,-4.6213,-4.6159,-4.6251,-4.6284,-4.6297,-4.6111,-4.6109,-4.6108,-4.6107,0,0,-4.6127,-4.6128,-4.6144,-4.615,-4.6157,-4.6185,-4.623,-4.6254,-4.6272,-4.6286,-4.6322,-4.6366,-4.6334,-4.6346,-4.6327,-4.6361,-4.6446,-4.6322,-4.6322,-4.6343,-4.6535,-4.6558,-4.6575,-4.6426,-4.6429,-4.6431,-4.6533,0,-4.6235,-4.6312,-4.6289,-4.6366,-4.6398,-4.6354,-4.6393,-4.6401,-4.6394,-4.642,-4.6412,-4.6442,-4.6399,-4.6406,-4.6437,-4.643,-4.6484,-4.6422,-4.6457,-4.6459,-4.6454,-4.6592,-4.6618,-4.6714,-4.6546,-4.6548,-4.655,0,-4.6373,-4.6391,-4.6471,-4.6469,-4.6482,-4.6517,-4.6536,-4.6562,-4.6569,-4.6561,-4.6574,-4.6547,-4.659,-4.6537,-4.6594,-4.6552,-4.6565,-4.6564,-4.6567,-4.6567,-4.6508,-4.6594,-4.6744,-4.6758,-4.657,-4.6568,-4.6567,0,-4.648,-4.6524,-4.6576,-4.6583,-4.6584,-4.6609,-4.661,-4.6614,-4.6629,-4.6645,-4.6654,-4.6676,-4.6687,-4.6704,-4.6683,-4.6647,-4.6742,-4.6689,-4.6736,-4.6736,-4.6756,-4.6755,-4.6908,-4.6769,-4.6769,-4.6768,-4.6768,0,-4.6603,-4.6653,-4.6623,-4.6656,-4.6709,-4.6682,-4.6735,-4.6731,-4.6735,-4.6764,-4.6729,-4.6757,-4.6729,-4.6755,-4.6739,-4.6787,-4.6793,-4.6787,-4.6782,-4.6789,-4.6789,-4.6796,-4.6787,-4.6772,-4.6771,-4.6771,-4.677,0,-4.6731,-4.6713,-4.6767,-4.6762,-4.6762,-4.6801,-4.6796,-4.6825,-4.6815,-4.6852,-4.6859,-4.6843,-4.6871,-4.6852,-4.6881,-4.687,-4.6932,-4.6919,-4.693,-4.6925,-4.6972,-4.6967,-4.7133,-4.7152,-4.7003,-4.7004,-4.7006,0,-4.6809,-4.6846,-4.6844,-4.6861,-4.6864,-4.6892,-4.6906,-4.688,-4.6896,-4.6906,-4.6933,-4.6958,-4.6976,-4.7022,-4.7013,-4.7034,-4.7019,-4.7076,-4.7022,-4.7027,-4.7017,-4.7014,-4.7016,-4.7086,-4.7088,-4.7089,-4.7091,0,-4.695,-4.6939,-4.6961,-4.6979,-4.6996,-4.701,-4.702,-4.7036,-4.7009,-4.7029,-4.7057,-4.7071,-4.7099,-4.7123,-4.714,-4.714,-4.7111,-4.7108,-4.7119,-4.7126,-4.7129,-4.7125,-4.6957,-4.7104,-4.7102,-4.7101,-4.7101,-4.71,-4.7054,-4.7083,-4.7085,-4.711,-4.7114,-4.7124,-4.715,-4.7142,-4.7164,-4.7184,-4.7167,-4.7199,-4.7203,-4.7222,-4.7226,-4.7251,-4.7227,-4.7245,-4.7249,-4.7253,-4.7258,-4.7127,-4.7254,-4.7254,-4.7253,-4.7253,-4.7253,0,-4.719,-4.7189,-4.7212,-4.7226,-4.7245,-4.7215,-4.7224,-4.7242,-4.727,-4.7276,-4.7294,-4.7324,-4.7346,-4.7338,-4.7358,-4.7378,-4.7365,-4.7384,-4.7381,-4.7381,-4.7279,-4.7266,-4.7395,-4.7395,-4.7394,-4.7394,-4.7394,-4.7394,-4.7264,-4.731,-4.7299,-4.7347,-4.7345,-4.7375,-4.7382,-4.7391,-4.7394,-4.7429,-4.7447,-4.7441,-4.7441,-4.746,-4.7479,-4.7475,-4.7483,-4.7507,-4.7499,-4.7403,-4.7389,-4.7376,-4.7363,-4.751,-4.751,-4.7598,-4.7599,-4.76]}]]